Rbgn^[z[y[W
メイン
   新天体発見情報
     Comet P/2019 V2 (Groeller)
投稿するにはまず登録を

スレッド表示 | 新しいものから 前のトピック | 次のトピック | 下へ
投稿者 スレッド
佐藤裕久
投稿日時: 2019-12-17 21:27
モデレータ
登録日: 2005-6-12
居住地: 日本
投稿: 2505
オンライン
Comet P/2019 V2 (Groeller)

Hannes Groellerの通報によると、彼は、11月3日にMt Lemmon サーベイの1.5-m 反射望遠鏡で
得たCCD画像から彗星を発見した。
4枚の30秒CCD露出で約5"の核に、p.a. 300-320°に約8"の尾が見える。
11月4.5日UT、E. J. Christensenによる発見した望遠鏡のフォローアップ観測では、この天体は
少し拡散しても北西に向かって約10"の広い尾が見える。11月24.45-24.47日、Groellerが、Mt
LemmonにあるSteward 天文台の1.0-m 反射望遠鏡で得た4枚の30秒CCD露出で、"ぼやけた核"で、
p.a. 290-320°に少なくとも70"の尾が見える。光度は20.0-20.5等であった。

発見位置は次のとおり、

     2019 UT             R.A. (2000) Decl.       Mag.   Observer
     Nov.  3.50088    9 25 08.41   + 4 49 04.0   20.7   Groeller
           3.50711    9 25 08.60   + 4 49 02.8   20.8     "
           3.51335    9 25 08.76   + 4 49 01.8   20.3     "
           3.51960    9 25 08.86   + 4 49 00.0   20.1     "
           3.52643    9 25 09.06   + 4 48 59.7   20.1     "
           3.52753    9 25 09.10   + 4 48 59.1   20.4     "
           3.52863    9 25 09.12   + 4 48 59.0   20.1     "

MPCの楕円軌道要素と位置推算表は次のとおり、

Orbital elements:
    P/2019 V2 (Groeller)                                                        
Epoch 2020 Sept. 28.0 TT = JDT 2459120.5                                        
T 2020 Oct. 3.00384 TT                                  Rudenko                 
q   5.0463211            (2000.0)            P               Q                  
n   0.04738517     Peri.  334.12393     -0.95687864     -0.28861152             
a   7.5632374      Node   189.28439     +0.28912016     -0.93522144             
e   0.3327829      Incl.   11.78990     +0.02815672     -0.20509572             
P  20.8                                                                         
From 29 observations 2019 Nov. 3-25, mean residual 0".4.                        
                                                                                
    P/2019 V2 (Groeller)                                                        
Epoch 2041 June 10.0 TT = JDT 2466680.5                                         
T 2041 June 26.50241 TT                                 Rudenko                 
q   5.0581454            (2000.0)            P               Q                  
n   0.04697886     Peri.  333.45120     -0.95297337     -0.30129495             
a   7.6067836      Node   189.19404     +0.30143584     -0.93127932             
e   0.3350481      Incl.   11.77481     +0.03127595     -0.20479301             
P  21.0                                                                         
From 29 observations 2019 Nov. 3-25, mean residual 0".4.                        
                                                                                
    P/2019 V2 (Groeller)                                                        
Epoch 2020 May 31.0 TT = JDT 2459000.5                                          
T 2020 Oct. 3.15074 TT                                  Rudenko                 
q   5.0462798            (2000.0)            P               Q                  
n   0.04735902     Peri.  334.13497     -0.95695637     -0.28835231             
a   7.5660218      Node   189.28891     +0.28886851     -0.93529339             
e   0.3330339      Incl.   11.78847     +0.02809787     -0.20513218             
P  20.8                                                                         
From 29 observations 2019 Nov. 3-25, mean residual 0".4.                        
                                                                                
Ephemeris:
Date    TT    R. A. (2000) Decl.     Delta      r    Elong.  Phase   m1
2019 10 26    09 20 57.1 +05 19 06   5.4977  5.2646    71.3    10.3  20.9
...
2019 11 10    09 27 53.2 +04 27 38   5.2529  5.2467    84.2    10.8  20.8
...
2019 11 18    09 30 41.3 +04 03 27   5.1197  5.2374    91.4    10.9  20.7
...
2019 11 24    09 32 20.4 +03 47 13   5.0201  5.2305    96.8    10.8  20.7
2019 11 25    09 32 34.5 +03 44 42   5.0036  5.2294    97.8    10.8  20.7
2019 11 26    09 32 48.0 +03 42 14   4.9871  5.2282    98.7    10.8  20.7
...
2019 12 02    09 33 54.2 +03 28 37   4.8893  5.2215   104.3    10.5  20.6
...
2019 12 10    09 34 42.8 +03 14 01   4.7629  5.2128   112.0    10.1  20.6
...
2019 12 25    09 34 09.5 +02 59 03   4.5459  5.1969   126.9     8.7  20.4

(CBET 4700、MPEC 2019-W132)

スレッド表示 | 新しいものから 前のトピック | 次のトピック | トップ

投稿するにはまず登録を
 
© 1999 Tsutomu Seki.